Dewpoint
72 74 73 73 74 73 73 73 73 73 73 73 72 73 72 72 73 73 73 74 76 75 76 78 77 76 76 77 78 76 76 76 77 74 75 76 75 73 71 71 71 70
72 73 74 73 74 75 74 72 72 71 73 73 72 72 72 74 72 73 74 74 76 75 76 76 77 77 76 75 75 76 76 76 75 75 74 75 74 73 72 71 70 70
71 72 72 72 72 72 73 72 71 72 72 73 72 74 72 74 72 72 74 73 75 74 75 75 76 76 76 76 77 76 76 76 76 74 75 77 77 75 74 71 70 69
71 71 71 71 71 71 70 71 71 73 72 72 71 72 72 70 70 72 73 76 74 74 76 76 75 75 75 75 77 76 76 76 76 76 75 76 77 75 73 72 70 69
70 70 69 69 69 70 70 70 70 71 71 71 71 72 72 73 71 70 73 74 75 75 75 75 75 76 76 75 76 75 75 76 76 76 75 74 75 75 72 72 73 72
70 70 70 69 69 69 69 69 69 69 69 69 70 71 71 71 71 71 71 72 73 73 73 74 75 74 75 76 76 76 75 74 74 75 76 76 76 75 73 72 73 74
69 69 69 69 69 69 69 68 69 70 69 68 69 69 70 70 70 71 71 72 72 72 71 73 74 73 73 74 75 75 75 75 75 75 76 76 76 75 75 73 74 73
69 69 69 69 68 68 69 68 68 69 71 69 68 69 69 70 70 72 72 72 72 71 71 73 72 73 74 74 74 75 75 75 75 73 72 73 74 74 74 73 74 72
69 69 69 68 67 67 67 67 68 69 70 70 69 67 69 69 70 70 71 71 71 72 72 72 73 73 73 74 74 75 74 72 73 74 73 73 73 74 74 74 73 74
69 69 68 68 67 67 67 67 67 68 70 69 68 67 67 70 70 70 71 72 72 73 72 72 72 72 73 73 74 74 74 74 73 73 74 74 74 74 74 74 73 73
69 69 68 68 68 68 66 67 67 66 68 68 67 66 67 69 71 71 72 73 71 72 74 73 73 73 73 72 74 75 74 74 74 74 74 74 74 74 76 74 74 73
68 68 68 68 68 67 66 66 66 65 66 67 67 67 70 68 71 70 71 72 71 72 73 74 75 74 74 74 74 74 74 73 75 74 74 75 75 75 75 75 74 74
66 66 67 67 68 68 67 67 64 64 66 67 67 67 67 66 67 69 72 71 72 73 72 74 74 73 75 75 74 74 73 74 74 73 74 75 74 74 74 74 74 73
67 67 68 68 68 70 71 70 70 65 66 66 68 67 68 66 67 69 72 71 73 72 73 75 73 74 75 75 76 74 73 74 74 73 74 74 74 74 74 73 73 72
70 70 71 71 74 70 71 72 72 71 67 68 70 68 67 68 69 70 70 71 71 72 73 72 73 73 73 74 75 75 75 74 74 74 74 74 74 73 73 73 73 73
71 73 73 74 77 77 73 73 72 72 72 72 71 71 71 69 71 70 70 71 72 72 72 72 69 69 71 72 73 74 73 73 75 74 73 73 74 74 73 73 72 72
74 73 72 75 76 76 76 75 75 75 75 75 74 74 74 70 69 71 71 70 71 71 71 69 66 65 65 65 66 69 71 71 71 72 73 72 73 73 74 71 72 73
74 74 74 75 76 75 75 76 76 75 75 75 74 74 72 69 70 71 71 71 70 71 69 66 63 63 62 63 65 66 69 71 71 72 71 71 73 72 72 73 74 74
68 70 74 75 75 76 76 75 75 75 75 75 74 73 72 71 71 71 71 71 71 69 66 63 59 60 60 62 62 63 66 70 72 73 72 71 71 71 71 73 73 74
69 70 72 75 75 75 75 75 75 74 75 75 75 74 72 71 71 71 71 71 70 65 61 56 54 57 58 59 60 61 63 68 71 73 72 71 71 70 70 70 71 73
70 71 71 73 73 73 73 74 75 74 75 75 75 74 71 71 70 71 72 71 66 60 53 47 50 56 56 58 58 59 62 69 71 74 73 72 72 72 71 72 72 72
70 71 71 72 72 71 71 71 72 74 74 74 74 73 73 72 71 72 70 65 60 52 49 47 50 54 55 56 57 60 66 70 70 69 68 70 70 72 74 73 73 68
70 70 70 71 70 69 69 70 71 72 71 72 71 72 72 71 71 71 68 63 58 52 49 49 50 53 53 55 58 60 63 62 61 60 61 62 64 66 70 69 68 66
69 69 70 70 68 69 70 70 71 71 71 72 71 71 70 70 70 69 65 60 55 52 50 50 48 51 51 52 55 58 60 57 56 55 56 60 61 63 67 66 64 63
70 69 69 70 70 71 71 71 70 71 71 70 70 70 70 70 71 66 63 60 58 57 57 54 51 53 51 51 52 55 59 56 53 51 53 57 60 61 65 63 62 62
69 69 69 69 68 68 69 69 70 70 70 70 70 69 69 68 66 64 62 60 60 58 58 57 56 55 56 53 52 53 56 55 52 46 51 56 59 60 60 64 60 61